Weather History for KEVW - September, 2013

Change the Weather History Date:

Tuesday, September 10, 2013

  Actual Average Record
Temperature  
Mean Temperature 60 °F 57 °F  
Max Temperature 68 °F 71 °F 78 °F (2001)
Min Temperature 51 °F 44 °F 33 °F (2010)
Degree Days  
Heating Degree Days 5 8  
Month to date heating degree days 22 65  
Since 1 July heating degree days 36 168  
Cooling Degree Days 0 0  
Month to date cooling degree days 26 0  
Year to date cooling degree days 348 157  
Growing Degree Days 10 (Base 50)    
Moisture  
Dew Point 47 °F    
Average Humidity 66    
Maximum Humidity 83    
Minimum Humidity 48    
Precipitation  
Precipitation 0.00 in 0.04 in 0.10 in (2008)
Month to date precipitation 0.52 0.42  
Year to date precipitation 3.10 8.45  
Sea Level Pressure  
Sea Level Pressure 29.96 in    
Wind  
Wind Speed 10 mph (ENE)    
Max Wind Speed 20 mph    
Max Gust Speed 27 mph    
Visibility 10 miles    
Events      
T = Trace of Precipitation, MM = Missing Value Source: NWS Daily Summary

Daily Weather History Graph

Daily Weather History Graph

Search for Another Location

Airport or City:

Trip Planner

Search our weather history database for the weather conditions in past years. The results will help you decide how hot, cold, wet, or windy it might be!

Date:

Astronomy

Sep. 10, 2013 Rise Set
Actual Time 6:59 AM MDT 7:41 PM MDT
Civil Twilight 6:31 AM MDT 8:09 PM MDT
Nautical Twilight 5:58 AM MDT 8:42 PM MDT
Astronomical Twilight 5:24 AM MDT 9:16 PM MDT
Moon 12:32 PM MDT (9/10) 10:43 PM MDT (9/10)
Length of Visible Light 13h 37m
Length of Day
12h 41m
Waxing Crescent, 29% of the Moon is Illuminated
Sep 10
Waxing Crescent
Sep 12
First Quarter
Sep 19
Full
Sep 26
Last Quarter
Oct 4
New

Hourly Weather History & Observations

Time (MDT) Temp. Dew Point Humidity Pressure Visibility Wind Dir Wind Speed Gust Speed Precip Events Conditions
12:53 AM 53.1 °F 43.0 °F 69% 29.91 in 10.0 mi North 8.1 mph - N/A   Partly Cloudy
1:53 AM 53.1 °F 43.0 °F 69% 29.95 in 10.0 mi NNE 5.8 mph - N/A   Clear
2:53 AM 52.0 °F 43.0 °F 71% 29.93 in 10.0 mi North 4.6 mph - N/A   Partly Cloudy
3:53 AM 53.1 °F 44.1 °F 71% 29.92 in 10.0 mi North 3.5 mph - N/A   Overcast
4:53 AM 52.0 °F 43.0 °F 71% 29.92 in 10.0 mi North 5.8 mph - N/A   Overcast
5:53 AM 52.0 °F 43.0 °F 71% 29.91 in 10.0 mi North 5.8 mph - N/A   Overcast
6:53 AM 52.0 °F 46.0 °F 80% 29.95 in 10.0 mi East 3.5 mph - N/A   Overcast
7:53 AM 52.0 °F 46.0 °F 80% 29.97 in 10.0 mi NE 5.8 mph - N/A   Overcast
8:53 AM 54.0 °F 46.0 °F 75% 29.98 in 10.0 mi ENE 5.8 mph - N/A   Clear
9:53 AM 55.9 °F 48.9 °F 77% 29.98 in 10.0 mi ENE 16.1 mph 20.7 mph N/A   Clear
10:53 AM 57.9 °F 48.9 °F 72% 29.99 in 10.0 mi ENE 12.7 mph - N/A   Scattered Clouds
11:53 AM 61.0 °F 46.0 °F 58% 29.98 in 10.0 mi East 15.0 mph 23.0 mph N/A   Overcast
12:53 PM 64.9 °F 48.0 °F 54% 29.97 in 10.0 mi ENE 15.0 mph - N/A   Mostly Cloudy
1:53 PM 64.9 °F 46.9 °F 52% 29.96 in 10.0 mi NE 15.0 mph 26.5 mph N/A   Overcast
2:53 PM 64.9 °F 46.9 °F 52% 29.95 in 10.0 mi East 18.4 mph 25.3 mph N/A   Overcast
3:53 PM 66.0 °F 48.9 °F 54% 29.93 in 10.0 mi East 19.6 mph 27.6 mph N/A   Mostly Cloudy
4:53 PM 68.0 °F 48.0 °F 49% 29.92 in 10.0 mi East 18.4 mph 25.3 mph N/A   Mostly Cloudy
5:53 PM 66.0 °F 48.0 °F 52% 29.93 in 10.0 mi ENE 19.6 mph 27.6 mph N/A   Clear
6:53 PM 63.0 °F 48.9 °F 60% 29.95 in 10.0 mi East 16.1 mph 24.2 mph N/A   Overcast
7:53 PM 62.1 °F 50.0 °F 65% 29.97 in 10.0 mi East 18.4 mph 25.3 mph N/A   Overcast
8:53 PM 60.1 °F 51.1 °F 72% 29.99 in 10.0 mi East 23.0 mph 28.8 mph N/A   Overcast
9:53 PM 59.0 °F 51.1 °F 75% 29.99 in 10.0 mi East 18.4 mph 21.9 mph N/A   Overcast
10:53 PM 57.0 °F 50.0 °F 77% 30.01 in 10.0 mi ENE 8.1 mph - N/A   Overcast
11:53 PM 55.9 °F 50.0 °F 80% 30.01 in 10.0 mi East 8.1 mph - N/A   Overcast